Regional Weather Roundup
Issued by NWS Boston, MA

Current Version | Previous Version | Text Only | Print | Product List | Glossary Off
Versions: 1 2 3 4 5 6 7 8 9 10 11 12 13 14 15 16 17 18 19 20 21 22 23 24 25 26 27 28 29 30 31 32 33 34 35 36 37 38 39 40 41 42 43 44 45 46 47 48 49 50
337 ASUS41 KBOX 220610 RWRBOX REGIONAL WEATHER ROUNDUP NATIONAL WEATHER SERVICE BOSTON/NORTON MA 200 AM EDT WED MAY 22 2019 NOTE: "FAIR" INDICATES FEW OR NO CLOUDS BELOW 12,000 FEET WITH NO SIGNIFICANT WEATHER AND/OR OBSTRUCTIONS TO VISIBILITY. MAZALL-220700- EASTERN MASSACHUSETTS CITY SKY/WX TMP DP RH WIND PRES REMARKS BOSTON FAIR 59 35 40 NW18G26 30.00R 6HR MIN TEMP: 58; 6HR MAX TEMP: 65; BEVERLY FAIR 55 35 47 NW15 29.98S LAWRENCE FAIR 54 36 50 NW14G23 30.01S BEDFORD FAIR 54 35 48 NW8 30.00R BLUE HILL N/A 52 35 52 NW15G26 29.98R NORWOOD FAIR 56 35 45 NW7 30.01R MARSHFIELD FAIR 57 37 47 VRB7G13 29.98R PLYMOUTH FAIR 55 34 45 NW14G26 29.98S TAUNTON FAIR 57 34 41 NW5 30.01R NEW BEDFORD FAIR 54 37 52 NW9 30.00R $$ MAZALL-220700- CAPE COD AND THE ISLANDS CITY SKY/WX TMP DP RH WIND PRES REMARKS FALMOUTH FAIR 54 34 47 NW8G16 29.99R HYANNIS FAIR 57 37 47 NW8G18 29.95S CHATHAM FAIR 56 39 53 VRB6 29.97R PROVINCETOWN FAIR 54 42 64 NW17 29.97S NANTUCKET FAIR 57 37 47 NW16G24 29.97S MARTHAS VNYRD FAIR 56 36 47 NW9 29.99R $$ MAZALL-220700- CENTRAL AND WESTERN MASSACHUSETTS CITY SKY/WX TMP DP RH WIND PRES REMARKS WORCESTER FAIR 50 34 54 W10 30.03R 6HR MIN TEMP: 50; 6HR MAX TEMP: 58; FITCHBURG FAIR 52 35 52 NW7 30.03R ORANGE FAIR 46 35 65 NW5 30.05R SPRINGFIELD FAIR 51 34 52 NW8 30.05R WESTFIELD FAIR 48 36 63 CALM 30.06R NORTH ADAMS FAIR 41 37 86 CALM 30.08R PITTSFIELD FAIR 48 35 60 W10 30.07R $$ RIZALL-220700- RHODE ISLAND CITY SKY/WX TMP DP RH WIND PRES REMARKS PROVIDENCE FAIR 57 34 41 NW10 30.03R 6HR MIN TEMP: 56; 6HR MAX TEMP: 64; NEWPORT FAIR 56 37 49 NW12 30.02R BLOCK ISLAND FAIR 55 38 52 NW10 30.05S SMITHFIELD FAIR 52 35 52 NW6 30.03R WESTERLY FAIR 54 37 52 VRB3 30.05R $$ CTZALL-220700- CONNECTICUT CITY SKY/WX TMP DP RH WIND PRES REMARKS BRADLEY INTL FAIR 52 34 50 NW8 30.06R 6HR MIN TEMP: 52; 6HR MAX TEMP: 64; HARTFORD FAIR 56 34 43 W6 30.07R BRIDGEPORT FAIR 53 39 59 NW7 30.10R DANBURY FAIR 45 39 79 W5 30.12R GROTON FAIR 55 35 47 W6 30.05R NEW HAVEN FAIR 60 39 45 NW7 30.08S CHESTER FAIR 52 36 54 NW6 30.07S MERIDEN FAIR 48 41 76 CALM 30.08S WILLIMANTIC FAIR 49 37 63 CALM 30.06R OXFORD FAIR 52 37 56 CALM 30.10S $$ MEZ002-015-021-024-NHZ003-005-008-011-012-014-VTZ005-008-220700- NORTHERN NEW ENGLAND CITY SKY/WX TMP DP RH WIND PRES REMARKS PORTLAND ME FAIR 51 33 50 N13 29.96R 6HR MIN TEMP: 51; 6HR MAX TEMP: 56; BANGOR ME FAIR 45 35 68 NW15 29.92R CONCORD NH FAIR 52 37 56 NW12G24 30.01R MANCHESTER NH FAIR 55 36 48 NW8 29.99R NASHUA NH FAIR 55 36 48 NW13 30.01R PORTSMOUTH NH CLEAR 50 36 59 NW9 29.96R JAFFREY NH FAIR 51 34 52 NW3 30.03R KEENE NH FAIR 45 39 79 CALM 30.04R BURLINGTON VT FAIR 51 39 63 N8 30.09R MT. WASHINGTON FOG 23 23 100 NW76G99 N/A VSB 1/16WCI -2 $$ NYZ052-076-220700- EASTERN NEW YORK CITY SKY/WX TMP DP RH WIND PRES REMARKS ALBANY FAIR 51 37 58 CALM 30.10R 6HR MIN TEMP: 50; 6HR MAX TEMP: 63; NEW YORK CITY MOCLDY 60 38 43 NW13 30.12R 6HR MIN TEMP: 60; 6HR MAX TEMP: 68; $$ ANZALL-220700- MARINE OBSERVATIONS STATION/POSITION TIME TEMP WIND PRES VSBY WAVE AIR SEA DIR/SP/G HT/PER (UTC) (F) (DEG/KT/KT) (MB) (MI) (FT/S) BOSTON BUOY 0550 55 51 310/ 17/ 23 1014.3R 2/ 3 BUZZARDS BAY NOT AVBL NANTUCKET SOUND 0550 56 300/ 16/ 17 1014.9R 1/ 3 MASS BAY-STELLWA 0504 53 47 320/ 17/ 23 1013.0S 1 7/8 2/ 3 ISLE OF SHOALS 0500 55 310/ 18/ 19 1013.6S S OF BLOCK IS 0530 53 N/A 3/ 7 $$ ......................KEY......................... SKY/WX - SKY CONDITION/PRESENT WEATHER TMP - TEMPERATURE IN FAHRENHEIT DWPT - DEWPOINT IN FAHRENHEIT RH - RELATIVE HUMIDITY IN PERCENT WIND - DIRECTION AND SPEED IN MPH PRES - MEAN SEA LEVEL PRESSURE IN INCHES OF HG WCI - WIND CHILL INDEX VSB - VISIBILITY IN MILES HX - HEAT INDEX TC - TEMPERATURE IN CELSIUS VRB - VARIABLE WIND DIRECTION N/A - NOT AVAILABLE

USA.gov is the U.S. government's official web portal to all federal, state and local government web resources and services.